This demonstration page uses our WeatherBlox Daily Observations layout. Learn more.

Left ArrowRight Arrow

38.88101, -77.10428

Hourly Observations for January 23, 2015

Temp ( °F °C ) Dew Point ( °F °C ) Humidity (%) Winds ( mph kmh ) Pressure ( in mb ) Visibility ( mi km ) Precip ( " mm )
12:52 am 00:52 Mostly Cloudy 37 2.8 25 -3.9 62 62 NNW 6 9 30.40 1029 10 16 N/A
1:52 am 01:52 Mostly Cloudy 37 2.8 24 -4.4 59 59 NNW 5 7 30.40 1030 10 16 N/A
2:52 am 02:52 Partly Cloudy 37 2.8 24 -4.4 59 59 NNW 5 7 30.40 1029 10 16 N/A
3:52 am 03:52 Partly Cloudy 36 2.2 23 -5 59 59 W 5 7 30.39 1029 10 16 N/A
4:52 am 04:52 Mostly Clear 33 0.6 25 -3.9 72 72 N N/A 30.38 1029 10 16 N/A
5:52 am 05:52 Partly Cloudy 33 0.6 26 -3.3 75 75 NNE 5 7 30.37 1029 10 16 N/A
6:52 am 06:52 Mostly Cloudy 33 0.6 25 -3.9 72 72 N N/A 30.37 1028 10 16 N/A
7:52 am 07:52 Cloudy 32 undefined 25 -3.9 75 75 SSW 5 7 30.36 1028 10 16 N/A
8:52 am 08:52 Cloudy 35 1.7 26 -3.3 70 70 N N/A 30.36 1028 10 16 N/A
9:52 am 09:52 Cloudy 36 2.2 28 -2.2 73 73 S 6 9 30.36 1028 9 14 N/A
10:52 am 10:52 Cloudy 39 3.9 26 -3.3 60 60 SSE 5 7 30.35 1028 10 16 N/A
11:52 am 11:52 Cloudy 41 5 26 -3.3 55 55 S 7 11 30.31 1026 10 16 N/A
12:52 pm 12:52 Cloudy 41 5 25 -3.9 53 53 SSE 7 11 30.27 1025 10 16 N/A
1:52 pm 13:52 Cloudy 42 5.6 25 -3.9 51 51 SSW 9 15 30.24 1024 10 16 N/A
2:52 pm 14:52 Cloudy 42 5.6 27 -2.8 55 55 S 9 15 30.19 1022 10 16 N/A
3:52 pm 15:52 Cloudy 41 5 27 -2.8 57 57 S 5 7 30.18 1022 10 16 N/A
4:11 pm 16:11 Cloudy with Light Rain 41 5 27 -3 57 57 S 7 11 30.18 1022 10 16 N/A
4:52 pm 16:52 Cloudy with Light Rain 41 5 28 -2.2 60 60 SSW 8 13 30.16 1021 10 16 N/A
5:15 pm 17:15 Cloudy 39 4 28 -2 65 65 SSW 7 11 30.15 1021 8 13 N/A
5:52 pm 17:52 Cloudy with Light Rain/Snow 38 3.3 30 -1.1 73 73 S 7 11 30.14 1021 7 11 0.02 0.51
6:15 pm 18:15 Cloudy 37 3 30 -1 75 75 S 8 13 30.15 1021 7 11 0.02 0.51
6:25 pm 18:25 Cloudy 37 3 30 -1 75 75 S 9 15 30.15 1021 8 13 0.03 0.76
6:52 pm 18:52 Cloudy 37 2.8 31 -0.6 79 79 S 8 13 30.12 1020 6 10 0.05 1.27
7:01 pm 19:01 Cloudy with Light Rain/Snow 37 3 30 -1 75 75 S 9 15 30.12 1020 6 10 0.01 0.25
7:16 pm 19:16 Cloudy with Light Rain 37 3 30 -1 75 75 S 5 7 30.12 1020 6 10 N/A
7:52 pm 19:52 Cloudy with Light Rain/Snow 37 2.8 32 undefined 82 82 S 5 7 30.09 1019 5 8 0.03 0.76
8:18 pm 20:18 Cloudy with Light Rain 37 3 32 undefined 81 81 S 5 7 30.09 1019 5 8 N/A
8:43 pm 20:43 Cloudy with Light Rain 37 3 32 undefined 81 81 N N/A 30.06 1018 4 6 0.04 1.02
8:52 pm 20:52 Cloudy with Light Rain 37 2.8 32 undefined 82 82 N N/A 30.06 1018 4 6 0.05 1.27
8:59 pm 20:59 Cloudy with Light Rain 37 3 32 undefined 81 81 N N/A 30.03 1017 4 6 0.01 0.25
9:42 pm 21:42 Cloudy with Rain 37 3 32 undefined 81 81 NE 3 6 30.00 1016 3 5 N/A
9:52 pm 21:52 Cloudy with Rain 37 2.8 33 0.6 86 86 NE 3 6 29.99 1016 3 5 0.13 3.30
10:23 pm 22:23 Cloudy with Rain 37 3 34 1 87 87 NE 5 7 29.97 1015 3 4 0.09 2.29
10:31 pm 22:31 Cloudy with Rain 37 3 34 1 87 87 NE 6 9 29.97 1015 3 5 0.11 2.79
10:39 pm 22:39 Cloudy with Light Rain 37 3 34 1 87 87 NNE 6 9 29.94 1014 3 5 0.12 3.05
10:44 pm 22:44 Cloudy with Light Rain 37 3 34 1 87 87 NE 8 13 29.94 1014 3 5 N/A
10:52 pm 22:52 Cloudy with Light Rain 37 2.8 33 0.6 86 86 NE 9 15 29.93 1014 3 5 0.14 3.56
10:59 pm 22:59 Cloudy with Light Rain 37 3 34 1 87 87 NE 9 15 29.91 1013 3 4 0.01 0.25
11:35 pm 23:35 Cloudy with Rain 37 3 34 1 87 87 NE 10 17 29.88 1012 3 4 0.14 3.56
11:52 pm 23:52 Cloudy with Rain 37 2.8 33 0.6 86 86 NNE 9 15 29.86 1011 3 5 0.20 5.08

Powered by AerisWeather